Home   Weather   Wuhan   Past weeks
Flag for China

Past Weather in Wuhan, Hubei, China — Yesterday and Last 2 Weeks

Now
59 °F

Clear.


Feels Like: 59 °F
Forecast: 78 / 60 °F
Wind: 1 mph from North

Location: Wuhan Airport

Current Time: Oct 18, 2019 at 10:46:01 pm

Latest Report: Oct 18, 2019 at 10:00 pm


Visibility: 10 mi

Pressure: 30.18 "Hg

Humidity: 88%

Dew Point: 55 °F

Location of WuhanLocation

Past Weather in Wuhan — Graph

°F

Wuhan Temperature Yesterday

Maximum temperature yesterday: 70 °F (at 4:00 pm)
Minimum temperature yesterday: 54 °F (at 5:00 am)
Average temperature yesterday: 61 °F

High & Low Weather Summary for the Past Weeks

 TemperatureHumidityPressure
High95 °F (Oct 4, 4:00 pm)100% (Oct 12, 6:00 am)30.42 "Hg (Oct 12, 6:00 am)
Low52 °F (Oct 18, 5:00 am)32% (Oct 4, 4:00 pm)29.80 "Hg (Oct 4, 3:00 am)
Average67 °F73%30.12 "Hg
* Reported Oct 3 9:00 pm — Oct 18 9:00 pm, Wuhan. Weather by CustomWeather, © 2019

Note: Actual official high and low records may vary slightly from our data, if they occured in-between our weather recording intervals... More about our weather records

Advertising

Wuhan Weather History for the Previous 24 Hours

Scroll right to see more
 ConditionsComfort  
Time TempWeatherWind HumidityBarometerVisibility
9:00 pm
Fri, Oct 18
63 °FClear.1 mph68%30.18 "Hg10 mi
8:00 pm64 °FPassing clouds.3 mph64%30.15 "HgN/A
7:00 pm68 °FPassing clouds.6 mph53%30.15 "HgN/A
6:00 pm68 °FClear.6 mph53%30.15 "Hg10 mi
5:00 pm73 °FPassing clouds.3 mph44%30.12 "HgN/A
4:00 pm73 °FPassing clouds.3 mph41%30.15 "HgN/A
3:00 pm73 °FPassing clouds.3 mph41%30.15 "HgN/A
2:00 pm72 °FPassing clouds.3 mph44%30.18 "HgN/A
1:00 pm72 °FPassing clouds.6 mph47%30.21 "HgN/A
12:00 pm70 °FPassing clouds.3 mph50%30.24 "HgN/A
11:00 am68 °FPassing clouds.3 mph49%30.24 "HgN/A
10:00 am66 °FSunny.3 mph60%30.27 "Hg10 mi
9:00 am63 °FClear.3 mph68%30.24 "Hg5 mi
8:00 am59 °FClear.1 mph72%30.24 "Hg4 mi
7:00 am52 °FClear.1 mph94%30.21 "Hg4 mi
6:00 am54 °FClear.1 mph82%30.21 "Hg10 mi
5:00 am52 °FClear.3 mph88%30.18 "Hg10 mi
4:00 am54 °FClear.3 mph88%30.18 "Hg10 mi
3:00 am54 °FClear.3 mph88%30.21 "Hg10 mi
2:00 am55 °FClear.1 mph82%30.21 "Hg10 mi
1:00 am59 °FClear.1 mph72%30.21 "Hg10 mi
12:00 am59 °FClear.1 mph77%30.24 "Hg10 mi
10:00 pm
Thu, Oct 17
63 °FClear.1 mph73%30.24 "Hg10 mi
Weather by CustomWeather, © 2019

See weather overview